This demonstration page uses our WeatherBlox Daily Observations layout. Learn more.

Left ArrowRight Arrow

Hourly Observations for May 8, 2020

Temp ( °F °C ) Dew Point ( °F °C ) Humidity (%) Winds ( mph kmh ) Pressure ( in mb ) Visibility ( mi km ) Precip ( " mm )
12:53 am 00:53 Clear 60 15.6 49 9.4 67 67 N 3 6 29.85 1011 10 16 0.00 0.00
1:53 am 01:53 Clear 58 14.4 48 8.9 70 70 Calm 29.85 1011 10 16 0.00 0.00
2:53 am 02:53 Clear 58 14.4 47 8.3 67 67 Calm 29.86 1011 10 16 0.00 0.00
3:53 am 03:53 Clear 56 13.3 45 7.2 67 67 N 3 6 29.86 1011 10 16 0.00 0.00
4:53 am 04:53 Clear 54 12.2 45 7.2 72 72 NW 5 7 29.86 1011 10 16 0.00 0.00
5:53 am 05:53 Clear 51 10.6 45 7.2 80 80 E 3 6 29.87 1012 10 16 0.00 0.00
6:53 am 06:53 Sunny 56 13.3 46 7.8 70 70 Calm 29.88 1012 10 16 0.00 0.00
7:53 am 07:53 Sunny 64 17.8 48 8.9 56 56 Calm 29.89 1012 10 16 0.00 0.00
8:53 am 08:53 Sunny 75 23.9 46 7.8 36 36 N 3 6 29.88 1012 10 16 0.00 0.00
9:53 am 09:53 Sunny 82 27.8 36 2.2 19 19 N 8 13 29.88 1012 10 16 0.00 0.00
10:53 am 10:53 Sunny 86 30 38 3.3 18 18 NNW 8 13 29.87 1012 10 16 0.00 0.00
11:53 am 11:53 Sunny 89 31.7 39 3.9 17 17 VRB 5 7 29.87 1011 10 16 0.00 0.00
12:53 pm 12:53 Sunny 90 32.2 38 3.3 16 16 Calm 29.85 1011 10 16 0.00 0.00
1:53 pm 13:53 Sunny 92 33.3 38 3.3 15 15 Calm 29.84 1010 10 16 0.00 0.00
2:53 pm 14:53 Sunny 94 34.4 39 3.9 15 15 S 5 7 29.82 1010 10 16 0.00 0.00
3:53 pm 15:53 Sunny 96 35.6 34 1.1 11 11 E 3 6 29.80 1009 10 16 0.00 0.00
4:53 pm 16:53 Sunny 94 34.4 32 0 11 11 SW 3 6 29.79 1009 10 16 0.00 0.00
5:53 pm 17:53 Sunny 94 34.4 31 -0.6 11 11 SE 5 7 29.78 1008 10 16 0.00 0.00
6:53 pm 18:53 Sunny 93 33.9 33 0.6 12 12 E 3 6 29.77 1008 10 16 0.00 0.00
7:53 pm 19:53 Sunny 83 28.3 46 7.8 27 27 Calm 29.77 1008 10 16 0.00 0.00
8:53 pm 20:53 Clear 77 25 50 10 39 39 Calm 29.77 1008 10 16 0.00 0.00
9:53 pm 21:53 Clear 73 22.8 52 11.1 48 48 N 5 7 29.79 1009 10 16 0.00 0.00
10:53 pm 22:53 Clear 70 21.1 51 10.6 51 51 Calm 29.80 1009 10 16 0.00 0.00
11:53 pm 23:53 Clear 68 20 52 11.1 57 57 Calm 29.81 1009 10 16 0.00 0.00

Powered by AerisWeather